Location: Bois de la Silve
(44.4667°N, 6.7833°E)
Time: 10:52:08
(UTC+00:00)

Cosmos 405 Rocket - Pass Details

Date: 14 July 2020
Orbit: 489 x 555 km, 81.3° (Epoch: 05 August)

Event Time Altitude Azimuth Distance (km) Brightness Sun altitude
Exits shadow 00:52:57 71° 117° (ESE) 545 2.6 -21.8°
Maximum altitude 00:53:05 72° 99° (E) 543 2.7 -21.8°
Drops below altitude 10° 00:56:51 10° 14° (NNE) 1,724 6.5 -21.5°
Sets 00:58:58 0° 13° (NNE) 2,604 7.8 -21.4°
